Theta_e
317 321 326 323 326 316 322 325 323 326 326 323 323 328 331 334 337 338 337 339 337 327 322 331 330 335 334 335 332 332 332 334 334 333 332 331 331 329 328 328 328 327 327 327 327 327 325 325 325
317 321 325 319 325 319 320 318 326 325 324 328 327 328 332 337 339 339 339 339 334 322 322 328 331 335 331 333 331 330 327 331 333 333 332 330 329 328 329 329 329 330 328 326 326 326 321 321 323
319 324 323 324 319 319 319 322 323 324 322 323 327 326 330 334 338 338 340 338 330 321 321 328 334 336 333 329 326 326 328 331 333 332 331 330 329 328 327 328 331 332 330 326 326 325 320 320 322
319 323 320 323 323 322 318 322 322 322 320 323 326 331 330 333 339 340 339 336 327 322 321 330 335 335 334 332 331 328 327 330 332 331 331 330 329 328 326 326 325 329 330 327 326 321 318 318 320
321 320 328 326 326 321 318 321 320 322 320 321 326 332 335 336 338 340 338 334 326 323 321 328 333 334 335 334 330 327 327 326 326 329 329 329 329 328 327 325 325 323 327 327 326 318 316 314 316
319 320 328 331 326 322 321 320 319 320 319 325 328 331 334 336 340 339 337 334 329 323 321 326 332 334 335 334 330 329 330 329 328 325 326 326 327 326 325 325 325 328 325 326 323 321 318 317 316
322 324 328 328 326 323 321 316 319 318 320 322 326 331 331 337 339 339 337 336 332 325 322 321 326 333 334 333 330 330 330 329 328 327 326 325 325 324 323 324 324 325 325 326 326 323 322 320 318
320 323 328 326 324 324 321 318 318 317 320 320 325 330 334 334 338 338 337 336 333 329 325 322 322 329 331 332 330 331 330 330 330 329 327 327 325 325 324 324 324 323 323 324 323 322 321 322 320
319 323 327 327 324 325 320 324 323 323 325 329 328 326 325 338 338 336 335 335 334 334 332 326 322 320 324 327 328 329 332 331 330 330 329 328 326 325 325 324 324 324 324 324 323 322 322 322 322
317 318 323 325 327 326 321 323 323 327 329 330 332 330 331 337 336 335 334 334 335 335 334 331 326 323 321 322 325 327 327 327 330 331 330 329 327 325 325 324 324 324 324 323 323 323 323 323 322
317 318 318 323 324 324 321 323 322 325 328 327 330 331 333 335 335 335 335 335 335 336 335 334 330 327 324 323 322 324 324 325 327 331 331 330 328 326 325 325 325 326 326 325 325 324 324 323 322
318 317 317 322 322 323 323 322 324 324 324 323 326 331 333 333 335 334 335 335 335 336 335 336 335 332 330 327 325 323 323 323 324 325 326 326 326 326 326 326 324 325 326 326 326 325 324 324 323
317 317 319 321 320 322 322 323 323 322 322 324 330 332 332 333 334 334 334 336 336 336 336 336 336 335 334 332 331 328 327 324 323 322 322 323 323 323 323 323 325 325 326 326 326 325 324 325 325
317 319 318 320 319 321 324 323 323 323 325 327 332 332 331 331 332 333 333 335 336 336 337 336 336 335 334 333 332 333 332 331 330 329 327 325 324 323 323 324 325 326 326 326 326 326 325 325 326
319 319 318 318 318 320 318 316 324 320 322 328 330 330 330 331 332 333 334 334 335 337 337 337 336 336 334 333 332 333 333 332 331 331 330 330 329 328 328 328 328 327 327 326 326 327 326 326 326
319 316 319 317 317 319 312 312 310 313 317 324 326 325 327 328 330 332 332 333 334 335 335 335 336 336 335 334 333 333 334 334 333 332 332 332 331 331 330 330 330 329 329 329 328 328 327 327 326
316 319 319 318 316 319 315 315 311 313 313 317 318 319 319 320 323 329 331 330 329 329 330 332 334 334 333 331 332 332 334 334 333 333 332 332 332 332 331 330 330 330 330 330 329 329 328 328 328
319 316 316 317 317 319 318 315 314 314 315 315 313 310 309 310 311 318 325 328 330 331 331 331 331 332 332 332 332 332 333 333 333 333 332 332 332 332 331 331 331 331 331 330 330 329 329 329 329
315 314 314 313 316 318 318 318 316 314 311 311 310 310 311 310 311 314 314 315 318 324 329 329 330 331 332 332 332 332 332 332 332 332 331 331 330 330 331 332 332 331 330 330 330 330 330 330 329
313 312 312 316 316 314 312 313 311 310 309 309 308 308 310 312 311 311 311 310 311 312 312 317 325 329 330 331 332 332 332 332 332 332 332 332 332 331 332 331 331 332 331 329 329 330 330 330 329
316 314 312 313 314 312 310 307 307 307 308 307 307 305 306 308 309 307 308 310 310 311 312 313 314 315 320 328 331 331 331 332 332 332 331 328 329 331 332 332 332 331 330 330 329 330 330 329 328
315 313 313 314 312 312 307 305 305 305 304 304 303 304 304 304 305 306 307 308 309 310 311 311 313 314 315 316 320 329 331 331 331 331 330 329 329 328 329 331 332 330 328 329 329 329 329 327 325
315 313 313 312 311 311 310 309 306 304 305 303 303 304 301 303 303 305 307 308 310 310 310 311 311 312 313 314 315 317 322 325 327 327 326 328 327 328 329 329 330 328 328 328 328 328 326 324 323
311 312 313 311 307 308 309 309 302 302 305 307 309 308 306 305 305 305 308 309 310 309 309 310 312 312 312 313 313 314 316 317 319 321 324 325 325 325 326 328 329 329 327 324 325 325 324 323 322
312 313 313 316 312 311 303 305 304 302 302 305 308 307 306 305 305 306 308 308 309 308 308 308 309 310 312 314 314 314 313 314 318 322 324 324 325 327 328 328 327 325 323 322 322 321 321 320 319
312 311 311 309 306 305 305 308 306 305 305 304 308 306 306 306 305 306 308 308 307 307 307 306 306 307 309 312 314 314 315 315 316 320 323 324 324 323 321 322 322 321 320 321 319 318 315 313 313
313 312 307 308 300 307 306 305 305 305 308 306 306 307 308 306 306 307 307 307 306 306 305 305 305 305 306 308 310 312 313 315 316 317 319 320 319 317 316 314 314 313 312 309 307 306 306 307 306
311 310 313 309 305 308 304 305 305 307 309 307 307 307 308 307 307 306 305 306 306 305 305 304 304 304 304 304 305 306 309 311 312 312 312 312 312 311 309 307 305 304 304 304 304 304 303 303 303
313 313 311 310 308 308 305 304 300 302 305 306 306 305 305 306 307 306 306 306 305 305 305 304 304 303 303 303 303 303 304 305 305 306 306 305 305 303 303 302 302 302 302 301 301 301 300 300 300
311 312 311 309 309 308 309 307 304 304 302 304 304 305 304 304 303 303 306 306 306 305 305 305 304 304 303 303 302 302 302 302 302 302 302 301 301 301 301 301 301 301 300 300 300 299 299 298 298
Wind_Speed
22 11 5 4 4 5 1 2 2 4 2 2 4 3 6 3 3 3 5 16 26 27 24 22 22 18 19 17 17 16 14 12 12 12 11 11 11 11 11 11 10 10 10 9 8 8 9 10 10
20 3 3 2 4 3 4 3 3 1 5 8 6 4 4 2 2 7 15 15 29 27 25 24 23 19 19 17 16 14 12 12 12 11 11 11 10 10 10 8 7 9 8 7 7 6 7 8 8
8 3 3 4 3 4 4 4 5 3 7 2 4 4 3 5 2 14 7 26 30 27 26 25 22 19 19 17 16 13 11 10 11 12 11 11 10 10 8 12 10 7 8 7 6 6 6 7 6
4 4 4 4 4 3 5 7 4 5 2 4 4 6 2 4 14 11 21 30 30 26 25 24 22 21 20 18 16 13 11 11 11 12 12 11 10 10 9 8 9 7 7 5 5 4 5 5 5
4 3 3 2 3 2 3 5 6 4 3 2 2 3 2 3 6 17 28 30 29 27 25 24 22 21 22 19 17 14 11 10 10 12 12 12 12 11 9 8 5 6 5 4 4 3 3 3 3
4 3 3 2 3 2 0 3 6 4 3 3 5 5 4 3 17 26 29 28 26 26 24 23 22 21 21 20 17 15 12 10 8 11 11 10 10 12 12 10 7 7 5 4 3 2 2 2 2
5 3 3 3 3 2 5 6 4 6 5 4 9 5 1 6 18 29 27 25 25 23 23 23 23 22 21 20 17 16 15 13 12 11 11 10 9 9 11 12 10 9 7 6 5 5 6 5 5
4 4 2 2 5 5 4 6 5 5 4 3 4 5 4 7 23 25 23 22 23 22 22 22 22 22 22 20 18 18 17 16 14 12 12 11 10 10 9 9 10 9 9 9 10 10 10 8 9
3 4 2 3 6 3 4 4 2 1 5 2 1 5 3 25 28 26 24 23 23 22 21 21 21 21 22 21 20 19 18 17 16 15 13 12 11 11 11 11 10 11 11 11 11 11 11 12 12
4 4 8 2 1 3 2 2 7 4 3 0 1 2 15 30 29 22 20 20 25 26 24 22 21 21 20 21 21 21 19 17 18 17 16 15 14 12 12 11 11 12 13 13 13 13 14 15 16
3 5 5 3 2 3 5 4 2 8 2 6 6 6 14 20 20 19 21 25 29 27 25 23 23 21 21 21 20 21 21 20 18 19 18 17 16 16 15 15 15 15 14 15 15 16 16 17 18
3 3 3 2 1 1 4 2 1 4 5 3 8 13 15 12 18 20 21 25 27 27 27 24 23 22 22 21 21 21 21 21 21 20 19 19 19 19 19 19 17 17 17 18 18 18 18 17 18
3 2 2 0 3 3 2 3 2 4 4 2 10 10 12 12 17 19 22 26 28 30 28 27 24 23 22 22 21 21 22 22 20 20 21 21 22 22 20 20 20 19 17 18 18 18 18 18 18
4 1 1 1 1 2 3 1 2 1 3 5 11 10 8 8 15 15 19 26 28 30 30 28 28 26 24 24 23 22 21 20 19 20 21 21 21 22 20 21 22 21 19 19 19 20 20 20 20
2 3 2 3 2 1 3 2 5 2 2 5 6 7 7 10 15 23 25 27 28 30 30 30 30 29 28 27 25 24 24 22 22 21 20 20 21 21 20 21 22 22 21 22 21 21 21 22 22
3 4 2 1 4 1 4 7 4 2 3 7 7 7 7 9 19 24 26 29 30 30 30 28 30 31 30 31 29 27 27 26 25 24 22 22 23 23 23 23 24 23 22 22 22 22 23 23 23
5 3 4 4 2 2 3 6 4 4 2 6 6 7 7 7 11 22 25 26 27 28 30 30 31 32 31 32 32 30 27 27 29 26 25 25 26 25 27 27 26 24 25 25 24 24 23 23 24
7 5 4 5 1 4 4 8 4 3 1 3 6 7 7 8 10 14 18 22 25 25 26 27 27 29 28 27 26 27 30 29 27 29 28 26 24 22 25 28 28 26 26 26 25 25 22 24 24
6 4 4 2 1 2 4 7 7 7 6 8 8 8 8 9 6 7 2 4 8 14 21 25 26 27 27 28 27 27 28 28 30 29 28 27 27 28 28 28 25 25 27 27 26 25 24 23 21
4 4 3 2 2 1 3 9 8 6 7 8 8 9 10 4 4 6 4 2 2 5 7 11 18 24 27 29 30 28 24 27 31 27 26 25 24 24 22 22 25 24 23 22 24 23 21 20 19
2 4 4 2 1 2 3 7 7 4 4 6 9 8 7 9 8 6 9 10 8 6 4 5 9 14 18 24 29 26 24 22 21 22 22 22 20 21 22 22 21 20 22 23 21 19 18 17 15
3 6 4 6 3 3 2 5 6 3 8 7 9 7 8 8 5 4 6 3 2 4 5 6 5 6 9 14 21 27 28 25 29 27 25 23 17 16 16 18 18 17 18 21 19 16 14 11 16
3 4 5 3 4 2 2 1 7 3 6 11 6 6 6 6 5 5 5 4 2 1 3 5 6 7 7 8 12 17 21 25 24 21 19 17 13 13 15 15 16 15 12 12 14 12 12 12 15
8 8 7 5 3 1 6 6 5 4 7 2 2 3 5 5 5 5 5 3 2 2 3 4 4 5 8 9 10 12 14 16 17 18 16 14 13 14 14 13 12 10 8 8 9 9 10 11 13
3 6 3 1 2 5 2 2 7 8 5 3 5 4 4 5 5 4 4 3 2 3 3 4 4 4 4 5 7 11 13 12 12 14 15 14 12 11 11 11 11 11 9 11 12 13 14 13 13
4 4 6 7 4 3 3 6 6 4 6 6 4 5 2 4 2 3 4 2 2 1 2 3 3 4 4 4 4 4 5 9 12 12 12 13 13 12 10 9 9 9 9 10 10 11 11 11 12
4 4 5 5 2 2 4 6 9 5 2 3 6 4 4 4 4 4 4 5 1 1 2 3 3 3 3 3 3 3 1 1 4 7 9 11 11 10 8 8 8 8 8 8 8 7 7 7 7
4 7 4 2 2 4 4 4 5 4 4 2 4 6 4 4 5 4 5 4 2 1 2 3 4 4 4 3 3 2 2 3 4 5 6 7 7 7 7 7 7 6 5 4 4 4 4 5 5
3 3 2 4 4 4 1 5 6 6 7 8 7 6 6 7 6 4 3 3 3 3 3 3 4 5 5 5 5 4 3 3 4 5 5 6 6 6 6 5 4 4 3 2 1 2 3 3 3
3 3 4 4 5 3 2 5 3 7 8 8 8 7 4 3 4 3 3 3 4 5 6 6 6 6 6 6 6 5 4 4 4 4 4 5 5 5 5 4 3 2 2 1 1 2 3 3 3
Wind_Direction
348 351 126 66 60 65 256 269 309 128 93 337 106 140 157 79 150 202 152 163 164 160 162 162 157 158 152 145 142 144 143 138 134 130 126 124 119 117 115 109 106 106 105 105 102 99 102 113 110
343 358 66 85 91 84 263 273 205 199 144 122 89 94 59 107 99 123 137 171 165 159 162 163 160 162 157 153 151 155 155 150 145 141 139 138 135 128 127 123 124 114 108 109 107 103 110 124 119
355 50 87 96 111 175 197 214 192 136 163 147 97 58 139 158 77 153 178 164 162 160 162 162 165 170 164 161 161 162 163 158 152 154 154 150 146 140 139 137 118 133 113 115 110 111 113 125 132
349 24 39 91 209 236 198 184 205 143 129 81 123 68 2 268 156 174 166 165 163 162 164 166 170 173 173 169 164 163 162 166 167 164 163 164 164 163 151 150 166 142 132 123 120 121 127 129 146
44 59 67 77 268 268 245 179 169 148 128 94 113 161 20 82 151 161 163 167 167 166 170 172 173 176 175 174 171 166 158 161 177 174 175 173 176 174 172 173 193 178 177 169 148 144 129 133 155
41 91 70 181 267 332 255 196 158 141 150 154 84 111 165 172 154 161 165 172 173 169 173 176 177 178 179 180 180 172 167 177 180 181 191 195 190 189 188 190 186 186 179 189 206 239 246 240 240
112 84 198 189 223 185 202 152 182 166 149 201 151 128 269 173 169 166 170 174 176 176 176 181 183 183 184 188 190 185 181 200 193 188 190 197 202 202 206 213 214 216 224 224 240 266 272 274 277
105 96 157 235 197 220 184 159 156 143 193 83 138 180 207 194 171 169 172 176 179 181 183 186 188 190 192 194 195 196 196 203 209 204 204 206 213 213 213 216 222 234 243 241 256 273 271 273 279
112 73 188 207 159 256 158 144 170 90 118 60 135 153 220 164 166 167 168 175 183 189 192 193 194 197 200 201 202 203 206 211 213 217 217 217 220 222 225 231 239 244 252 256 262 268 273 280 284
97 128 208 192 210 235 235 181 158 135 118 4 296 34 145 158 165 167 172 180 188 193 197 201 203 204 203 206 208 210 212 214 216 218 222 224 229 233 237 244 250 256 262 267 268 272 278 280 285
154 182 198 235 248 222 188 158 301 124 240 209 195 152 146 157 171 178 187 190 194 198 199 204 209 211 211 212 212 216 217 218 219 222 227 232 237 241 243 248 250 254 258 263 268 272 277 282 286
157 219 212 169 295 140 127 145 224 197 213 226 182 159 154 170 186 190 192 197 200 203 206 209 213 216 219 222 221 223 223 223 226 230 232 235 240 244 247 251 255 260 261 266 271 274 280 285 283
169 219 132 281 54 87 120 77 189 254 329 25 132 149 175 180 193 204 204 208 209 210 212 215 217 220 223 225 228 229 231 232 236 238 241 242 245 249 253 256 258 261 265 265 272 277 279 284 288
180 143 226 244 340 39 121 148 102 255 58 110 154 174 180 191 195 197 206 214 218 219 219 220 221 222 224 227 230 233 235 237 238 244 247 248 250 251 253 258 260 264 266 268 274 278 281 282 285
111 133 21 217 207 228 146 282 219 102 110 159 191 191 195 212 202 215 216 219 222 224 226 225 224 226 226 229 236 237 237 241 242 246 250 251 252 256 257 259 262 265 269 272 273 274 278 281 285
101 61 117 296 165 251 107 255 254 354 175 203 213 214 220 229 224 228 230 230 229 231 231 232 229 228 228 232 237 238 242 242 245 248 251 253 255 258 259 262 266 271 271 271 271 275 278 281 286
10 177 189 304 181 135 154 244 248 66 140 224 226 231 232 249 243 240 238 237 236 234 235 236 234 235 239 240 240 240 244 243 245 251 253 255 257 258 260 262 267 272 272 271 272 273 274 279 284
184 185 223 197 257 149 169 254 251 272 66 279 278 268 253 249 247 246 247 246 243 242 242 242 240 235 236 237 239 241 242 245 248 251 253 256 259 262 261 263 266 270 273 272 270 269 273 275 284
145 150 170 213 353 149 212 260 246 278 306 273 258 261 258 252 254 248 222 207 234 245 245 247 247 244 237 233 233 236 239 241 243 247 251 255 258 260 261 263 268 271 270 273 274 274 274 278 281
135 143 180 50 8 119 23 275 266 252 252 244 245 243 248 240 247 253 263 316 254 254 244 237 242 245 242 239 238 236 241 245 248 253 257 256 257 260 262 265 265 264 273 270 273 268 263 269 276
168 155 168 146 91 56 355 297 289 282 252 278 257 246 242 236 246 255 273 273 264 260 265 261 250 244 240 241 241 242 242 246 250 253 258 260 259 260 259 261 265 266 272 273 268 269 257 260 278
191 186 141 127 103 230 25 269 295 315 289 263 270 260 254 245 234 227 236 216 254 257 270 264 255 251 241 237 236 240 241 238 251 256 263 269 268 267 263 260 258 267 272 268 261 259 258 265 277
195 121 131 98 91 74 345 40 270 346 293 271 306 302 250 250 224 166 122 127 122 308 302 295 276 258 246 237 236 238 241 246 255 260 260 256 253 254 260 259 254 260 282 272 255 245 260 272 278
150 92 55 55 55 316 201 175 264 224 217 293 304 4 109 113 111 108 105 95 61 7 340 326 312 288 276 259 249 251 256 257 254 251 245 235 240 247 251 249 242 249 259 265 257 267 281 281 280
94 121 49 329 304 223 190 169 250 265 256 253 228 219 179 142 138 136 113 86 52 36 23 8 353 335 328 311 278 261 256 255 253 246 232 216 213 208 210 222 232 232 241 255 261 263 269 268 268
165 154 151 199 204 213 119 233 247 231 287 232 197 180 172 147 147 153 177 169 200 89 23 11 9 357 356 334 336 328 284 250 241 234 221 212 207 205 207 214 221 227 236 246 256 263 266 268 270
183 174 164 109 7 50 215 286 297 259 304 115 142 152 175 163 170 191 208 218 224 316 342 346 338 340 349 353 336 321 340 196 193 197 200 202 203 204 207 214 228 239 246 253 257 260 263 268 274
159 153 94 21 151 244 259 275 245 251 232 186 162 178 162 160 182 216 225 233 240 266 312 321 316 314 322 320 314 303 255 234 220 210 201 200 209 218 226 227 224 225 229 234 246 255 274 287 299
147 179 157 131 162 182 207 255 216 221 205 199 208 196 185 185 199 211 235 243 255 266 277 284 295 301 304 302 296 288 269 242 223 210 205 206 207 206 208 206 204 209 217 240 262 284 312 317 323
210 232 159 143 213 231 160 272 203 255 214 179 188 196 196 194 212 235 246 264 270 281 284 288 287 285 285 278 273 266 256 248 230 208 198 195 194 195 197 199 211 220 244 274 310 297 297 308 324